QPF
0.00 0.00 0.00 0.00 0.00 0.00 0.00 0.00 0.00 0.00 0.00 0.00 0.04 0.08 0.04 0.02 0.04 0.03 0.01 0.07 0.01 0.04 0.01 0.05 0.03 0.03 0.01 0.01 0.02 0.02 0.02 0.03 0.01 0.00 0.00 0.00 0.00 0.00 0.00 0.00 0.02 0.00 0.07
0.00 0.00 0.00 0.00 0.00 0.00 0.00 0.00 0.00 0.00 0.00 0.00 0.00 0.03 0.09 0.09 0.09 0.14 0.14 0.06 0.07 0.09 0.02 0.04 0.03 0.04 0.05 0.04 0.03 0.04 0.06 0.06 0.05 0.02 0.01 0.01 0.03 0.00 0.00 0.00 0.00 0.00 0.00
0.00 0.00 0.00 0.00 0.00 0.00 0.00 0.00 0.00 0.00 0.00 0.00 0.00 0.00 0.00 0.02 0.12 0.05 0.09 0.08 0.03 0.03 0.05 0.06 0.01 0.02 0.02 0.02 0.02 0.01 0.02 0.03 0.01 0.00 0.02 0.02 0.01 0.00 0.00 0.01 0.00 0.01 0.00
0.00 0.00 0.00 0.00 0.00 0.00 0.00 0.00 0.00 0.00 0.00 0.00 0.00 0.00 0.00 0.00 0.01 0.00 0.01 0.03 0.04 0.03 0.03 0.04 0.02 0.02 0.01 0.06 0.02 0.02 0.03 0.04 0.02 0.01 0.01 0.00 0.00 0.00 0.01 0.04 0.02 0.08 0.06
0.00 0.00 0.00 0.00 0.00 0.00 0.00 0.00 0.00 0.00 0.00 0.00 0.00 0.00 0.00 0.00 0.00 0.01 0.03 0.02 0.04 0.01 0.02 0.01 0.01 0.02 0.13 0.07 0.05 0.01 0.02 0.01 0.02 0.03 0.00 0.00 0.00 0.01 0.05 0.07 0.05 0.11 0.07
0.00 0.00 0.00 0.00 0.00 0.00 0.00 0.00 0.00 0.00 0.00 0.00 0.00 0.00 0.00 0.00 0.00 0.00 0.02 0.03 0.04 0.10 0.05 0.06 0.06 0.10 0.10 0.05 0.00 0.00 0.01 0.01 0.00 0.01 0.00 0.00 0.00 0.02 0.07 0.06 0.03 0.07 0.09
0.00 0.00 0.00 0.00 0.00 0.00 0.00 0.00 0.00 0.00 0.00 0.00 0.00 0.00 0.00 0.00 0.03 0.03 0.01 0.00 0.00 0.01 0.02 0.02 0.02 0.00 0.00 0.01 0.03 0.02 0.00 0.00 0.00 0.04 0.02 0.02 0.04 0.05 0.05 0.07 0.07 0.08 0.09
0.00 0.00 0.00 0.00 0.00 0.00 0.00 0.00 0.01 0.02 0.02 0.03 0.02 0.00 0.00 0.00 0.00 0.00 0.01 0.00 0.00 0.01 0.01 0.00 0.00 0.00 0.01 0.03 0.07 0.05 0.01 0.01 0.03 0.01 0.03 0.06 0.06 0.05 0.03 0.08 0.08 0.09 0.03
0.00 0.00 0.00 0.00 0.00 0.00 0.00 0.00 0.01 0.04 0.03 0.02 0.02 0.01 0.01 0.00 0.00 0.00 0.01 0.00 0.01 0.02 0.04 0.03 0.02 0.02 0.01 0.05 0.09 0.04 0.01 0.03 0.03 0.02 0.04 0.07 0.10 0.11 0.08 0.02 0.02 0.05 0.04
0.00 0.00 0.00 0.00 0.00 0.00 0.00 0.00 0.00 0.01 0.01 0.02 0.01 0.01 0.02 0.02 0.04 0.03 0.01 0.00 0.00 0.00 0.00 0.01 0.01 0.01 0.08 0.09 0.08 0.09 0.04 0.02 0.08 0.03 0.01 0.03 0.06 0.07 0.11 0.05 0.04 0.05 0.07
0.00 0.00 0.00 0.00 0.00 0.00 0.00 0.00 0.01 0.01 0.01 0.01 0.00 0.00 0.00 0.00 0.00 0.01 0.01 0.01 0.01 0.01 0.00 0.01 0.00 0.00 0.01 0.02 0.02 0.02 0.06 0.11 0.10 0.06 0.02 0.01 0.03 0.03 0.03 0.03 0.03 0.04 0.06
0.00 0.00 0.00 0.00 0.00 0.00 0.00 0.01 0.01 0.01 0.01 0.00 0.00 0.00 0.00 0.00 0.00 0.00 0.00 0.00 0.00 0.01 0.01 0.01 0.01 0.01 0.01 0.03 0.03 0.04 0.04 0.06 0.04 0.06 0.06 0.06 0.07 0.07 0.05 0.03 0.04 0.07 0.14
0.00 0.00 0.00 0.00 0.00 0.00 0.00 0.01 0.01 0.01 0.01 0.01 0.00 0.00 0.00 0.00 0.00 0.00 0.00 0.00 0.00 0.02 0.03 0.05 0.04 0.03 0.03 0.02 0.03 0.03 0.02 0.02 0.02 0.06 0.11 0.11 0.17 0.20 0.29 0.30 0.26 0.27 0.30
0.00 0.00 0.00 0.00 0.00 0.00 0.00 0.00 0.00 0.01 0.01 0.01 0.00 0.00 0.00 0.00 0.00 0.00 0.00 0.00 0.00 0.00 0.00 0.01 0.02 0.05 0.18 0.26 0.31 0.28 0.16 0.08 0.09 0.09 0.09 0.09 0.27 0.33 0.29 0.22 0.19 0.18 0.12
0.00 0.00 0.00 0.00 0.00 0.00 0.00 0.00 0.00 0.00 0.00 0.01 0.00 0.00 0.00 0.00 0.00 0.00 0.00 0.00 0.00 0.00 0.00 0.00 0.00 0.02 0.06 0.07 0.08 0.14 0.26 0.41 0.40 0.48 0.63 0.42 0.32 0.29 0.23 0.14 0.07 0.01 0.00
0.00 0.00 0.00 0.00 0.00 0.00 0.00 0.00 0.00 0.00 0.00 0.00 0.00 0.00 0.00 0.00 0.00 0.00 0.00 0.00 0.00 0.00 0.00 0.01 0.03 0.02 0.02 0.01 0.01 0.03 0.05 0.08 0.13 0.16 0.24 0.30 0.19 0.10 0.06 0.03 0.00 0.00 0.00
0.00 0.00 0.00 0.00 0.00 0.00 0.00 0.00 0.00 0.00 0.00 0.00 0.00 0.00 0.00 0.00 0.00 0.00 0.00 0.00 0.01 0.01 0.01 0.02 0.03 0.04 0.03 0.02 0.02 0.01 0.00 0.01 0.02 0.03 0.05 0.06 0.03 0.01 0.00 0.00 0.00 0.00 0.00
0.00 0.00 0.00 0.00 0.00 0.00 0.00 0.00 0.00 0.00 0.00 0.00 0.00 0.00 0.00 0.00 0.00 0.00 0.00 0.00 0.00 0.00 0.00 0.00 0.00 0.00 0.00 0.00 0.00 0.00 0.00 0.00 0.00 0.00 0.01 0.01 0.01 0.01 0.00 0.00 0.00 0.00 0.00
0.00 0.00 0.00 0.00 0.00 0.00 0.00 0.00 0.00 0.00 0.00 0.00 0.00 0.00 0.00 0.00 0.00 0.00 0.00 0.00 0.01 0.01 0.01 0.00 0.00 0.00 0.00 0.00 0.00 0.00 0.00 0.00 0.00 0.00 0.00 0.00 0.00 0.00 0.00 0.00 0.00 0.00 0.00
0.00 0.00 0.00 0.00 0.00 0.00 0.00 0.00 0.00 0.00 0.00 0.00 0.00 0.00 0.00 0.00 0.00 0.00 0.00 0.00 0.01 0.01 0.01 0.00 0.00 0.00 0.00 0.00 0.00 0.00 0.00 0.00 0.00 0.00 0.00 0.00 0.00 0.00 0.00 0.00 0.00 0.00 0.00
0.00 0.00 0.00 0.01 0.00 0.00 0.00 0.00 0.00 0.00 0.00 0.00 0.00 0.00 0.00 0.00 0.00 0.00 0.00 0.00 0.00 0.00 0.00 0.00 0.00 0.00 0.00 0.00 0.00 0.00 0.00 0.00 0.00 0.00 0.00 0.00 0.00 0.00 0.00 0.00 0.00 0.00 0.00
0.00 0.00 0.01 0.01 0.00 0.00 0.00 0.00 0.00 0.00 0.00 0.00 0.00 0.00 0.00 0.00 0.00 0.00 0.00 0.00 0.00 0.00 0.00 0.00 0.00 0.00 0.00 0.00 0.00 0.00 0.00 0.00 0.00 0.00 0.00 0.00 0.00 0.00 0.00 0.00 0.00 0.00 0.00
0.00 0.00 0.01 0.01 0.00 0.00 0.00 0.00 0.00 0.00 0.00 0.00 0.00 0.00 0.00 0.00 0.00 0.00 0.00 0.00 0.00 0.00 0.00 0.00 0.00 0.00 0.00 0.00 0.00 0.00 0.00 0.00 0.00 0.00 0.00 0.00 0.00 0.00 0.00 0.00 0.00 0.00 0.00
0.00 0.00 0.01 0.00 0.00 0.00 0.00 0.00 0.00 0.00 0.00 0.00 0.00 0.00 0.00 0.00 0.00 0.00 0.00 0.00 0.00 0.00 0.00 0.00 0.00 0.00 0.00 0.00 0.00 0.00 0.00 0.00 0.00 0.00 0.00 0.00 0.00 0.00 0.00 0.00 0.00 0.00 0.00
0.00 0.00 0.00 0.00 0.00 0.00 0.00 0.00 0.00 0.00 0.00 0.00 0.00 0.00 0.00 0.00 0.00 0.00 0.00 0.00 0.00 0.00 0.00 0.00 0.00 0.00 0.00 0.00 0.00 0.00 0.00 0.00 0.00 0.00 0.00 0.00 0.00 0.00 0.00 0.00 0.00 0.00 0.00
0.00 0.00 0.00 0.00 0.00 0.00 0.00 0.00 0.00 0.00 0.00 0.00 0.00 0.00 0.00 0.00 0.00 0.00 0.00 0.00 0.00 0.00 0.00 0.00 0.00 0.00 0.00 0.00 0.00 0.00 0.00 0.00 0.00 0.00 0.00 0.00 0.00 0.00 0.00 0.00 0.00 0.00 0.00
MSLP
1011.47 1012.33 1012.81 1013.33 1014.00 1014.62 1014.83 1015.13 1015.38 1015.42 1015.59 1015.99 1016.26 1016.50 1016.62 1016.51 1016.69 1016.98 1017.17 1017.22 1017.64 1017.69 1017.76 1017.63 1018.07 1018.12 1017.58 1017.22 1017.41 1017.45 1017.50 1016.94 1016.76 1015.82 1015.66 1016.12 1016.79 1016.69 1016.30 1016.54 1016.71 1016.79 1017.81
1010.81 1012.11 1012.11 1012.67 1013.25 1013.41 1013.97 1014.27 1014.70 1014.93 1015.16 1015.43 1015.69 1015.84 1016.33 1016.33 1016.49 1016.75 1016.93 1016.79 1017.03 1017.37 1017.34 1017.43 1017.55 1017.47 1017.90 1017.79 1017.65 1017.56 1017.77 1017.68 1017.66 1017.03 1016.56 1016.16 1016.30 1016.31 1016.46 1016.57 1016.33 1015.97 1016.09
1010.12 1010.63 1011.36 1011.91 1012.80 1012.62 1012.73 1013.42 1013.83 1014.23 1014.52 1014.66 1014.94 1015.22 1015.38 1015.59 1015.97 1016.15 1016.35 1016.39 1016.49 1016.74 1016.77 1017.03 1016.93 1016.97 1017.16 1017.13 1017.06 1016.79 1016.43 1017.21 1017.08 1016.93 1016.42 1016.40 1016.32 1016.02 1015.88 1016.23 1016.28 1016.12 1016.41
1009.75 1010.17 1010.39 1010.95 1011.37 1011.70 1012.06 1012.61 1013.08 1013.53 1013.86 1014.10 1014.25 1014.40 1014.68 1014.97 1015.07 1015.40 1015.46 1015.68 1015.85 1015.89 1016.00 1016.09 1016.37 1016.23 1016.38 1016.57 1017.01 1016.90 1016.94 1016.88 1016.65 1016.66 1015.96 1015.53 1015.61 1015.87 1016.11 1015.76 1015.71 1016.16 1016.33
1009.63 1009.99 1010.23 1010.53 1010.97 1011.33 1011.60 1012.08 1012.54 1012.88 1013.08 1013.37 1013.61 1013.74 1013.94 1014.21 1014.37 1014.57 1015.04 1015.30 1015.12 1015.25 1015.25 1015.41 1015.53 1015.56 1015.75 1016.07 1016.51 1016.37 1016.40 1016.48 1015.98 1015.96 1015.75 1014.92 1014.65 1014.46 1015.14 1015.88 1015.91 1015.90 1016.40
1009.38 1009.74 1010.09 1010.35 1010.71 1011.00 1011.37 1011.71 1012.02 1012.36 1012.65 1012.94 1013.06 1013.16 1013.31 1013.36 1013.41 1013.87 1014.13 1014.17 1014.67 1014.92 1014.95 1014.89 1014.95 1015.14 1015.48 1015.70 1015.93 1016.09 1016.06 1016.11 1015.97 1015.56 1014.80 1014.25 1014.46 1014.89 1015.04 1015.64 1015.43 1015.55 1016.09
1009.36 1009.60 1009.88 1010.09 1010.42 1010.68 1011.00 1011.39 1011.64 1012.02 1012.18 1012.25 1012.42 1012.67 1012.92 1013.17 1013.49 1013.96 1014.25 1014.13 1013.95 1013.90 1014.30 1014.21 1014.09 1014.07 1014.39 1014.72 1015.10 1015.44 1015.61 1015.72 1015.70 1015.41 1015.30 1014.91 1014.76 1014.87 1015.11 1015.25 1015.50 1015.58 1015.83
1009.22 1009.67 1009.99 1010.16 1010.39 1010.60 1010.94 1011.23 1011.55 1011.61 1011.77 1011.96 1012.21 1012.38 1012.67 1013.07 1013.59 1013.85 1014.16 1014.03 1013.59 1013.39 1013.40 1013.62 1013.72 1013.77 1013.82 1013.91 1014.14 1014.38 1014.35 1014.37 1014.77 1015.04 1014.77 1014.66 1014.89 1014.82 1014.63 1014.87 1015.20 1015.62 1016.07
1009.42 1009.69 1009.99 1010.22 1010.45 1010.67 1010.91 1011.08 1011.22 1011.53 1011.72 1011.87 1012.03 1012.20 1012.48 1012.87 1013.46 1013.71 1013.97 1013.53 1013.17 1013.02 1013.03 1013.13 1013.11 1013.25 1013.33 1013.74 1013.89 1013.86 1013.62 1013.42 1014.09 1014.49 1014.65 1014.71 1014.92 1015.01 1014.94 1015.01 1014.91 1015.49 1015.47
1009.48 1009.89 1010.13 1010.21 1010.39 1010.60 1010.80 1011.08 1011.38 1011.59 1011.77 1012.07 1012.31 1012.48 1012.59 1012.86 1013.30 1013.67 1013.96 1013.73 1012.81 1012.58 1012.58 1012.51 1012.82 1013.02 1013.04 1013.33 1013.52 1013.25 1013.08 1012.69 1013.02 1013.51 1014.45 1014.93 1014.94 1015.00 1015.40 1015.27 1015.05 1015.27 1015.51
1009.30 1009.63 1010.12 1010.61 1010.77 1010.79 1010.75 1010.94 1011.13 1011.27 1011.46 1011.85 1012.27 1012.64 1012.77 1013.14 1013.30 1013.83 1013.90 1013.82 1013.45 1013.04 1012.14 1011.98 1012.15 1012.85 1013.19 1013.46 1013.42 1013.09 1012.38 1012.35 1012.35 1012.78 1013.27 1013.76 1014.44 1014.64 1014.92 1015.14 1015.37 1015.43 1015.52
1009.33 1009.70 1010.34 1010.50 1010.51 1010.95 1010.91 1010.93 1010.99 1011.31 1011.70 1012.09 1012.14 1012.13 1012.30 1012.89 1013.61 1013.64 1013.85 1013.94 1013.79 1013.67 1013.43 1013.25 1013.28 1013.41 1013.55 1013.45 1013.37 1013.15 1012.92 1012.79 1012.27 1012.39 1012.69 1013.41 1014.30 1015.03 1015.49 1015.60 1015.91 1016.07 1016.29
1009.35 1009.72 1010.03 1010.24 1010.58 1010.77 1010.96 1010.96 1011.16 1011.67 1011.84 1012.01 1012.07 1012.16 1012.51 1012.81 1013.11 1013.68 1013.82 1013.77 1013.69 1013.71 1013.81 1013.75 1013.65 1013.58 1013.69 1013.57 1013.44 1012.96 1012.71 1012.63 1012.25 1012.81 1013.42 1013.99 1014.69 1015.41 1015.97 1016.46 1016.48 1016.64 1016.68
1009.41 1009.75 1010.10 1010.38 1010.61 1010.69 1010.73 1010.83 1011.21 1011.63 1012.03 1012.24 1012.49 1012.47 1012.66 1012.71 1012.95 1013.25 1013.54 1013.82 1014.03 1013.93 1014.08 1014.13 1014.07 1013.98 1013.99 1013.90 1013.75 1013.51 1012.87 1012.85 1013.11 1013.69 1014.04 1014.35 1014.65 1015.56 1016.02 1016.32 1016.66 1016.75 1016.48
1009.35 1009.64 1009.93 1010.24 1010.61 1011.24 1011.86 1012.22 1012.27 1012.66 1013.00 1012.80 1012.61 1012.23 1012.60 1013.01 1013.55 1013.93 1013.94 1013.78 1013.85 1014.28 1014.26 1014.17 1014.06 1013.93 1014.43 1014.55 1014.34 1014.07 1013.77 1013.49 1013.95 1014.53 1015.19 1014.88 1015.00 1015.51 1015.96 1016.12 1015.50 1015.92 1016.33
1009.28 1009.48 1009.57 1009.96 1010.57 1011.11 1011.64 1012.78 1013.51 1013.61 1013.63 1013.56 1013.50 1013.30 1013.14 1013.75 1014.12 1014.21 1014.23 1014.26 1014.35 1014.43 1014.42 1014.44 1014.46 1014.42 1014.45 1014.48 1014.59 1014.70 1014.60 1014.53 1014.93 1014.38 1015.36 1015.89 1015.49 1015.77 1016.18 1015.61 1015.28 1015.38 1015.69
1009.02 1009.26 1009.56 1009.90 1010.21 1010.77 1010.92 1011.28 1012.29 1013.90 1013.93 1013.86 1013.82 1013.74 1013.74 1014.06 1014.28 1014.30 1014.27 1014.13 1014.09 1014.12 1014.14 1014.27 1014.38 1014.38 1014.35 1014.36 1014.38 1014.46 1014.61 1014.70 1015.00 1015.18 1015.35 1015.81 1015.66 1015.84 1016.15 1015.97 1015.84 1015.83 1015.70
1009.06 1009.41 1009.36 1009.50 1010.03 1010.48 1010.62 1010.63 1010.74 1011.71 1012.52 1012.99 1013.89 1013.94 1014.16 1014.23 1014.34 1014.42 1014.39 1014.17 1013.62 1013.78 1013.14 1013.44 1013.37 1013.17 1013.48 1013.57 1013.72 1013.92 1014.51 1014.70 1015.05 1015.19 1015.44 1015.65 1015.84 1016.00 1015.97 1015.93 1015.95 1015.73 1015.67
1008.83 1009.11 1008.71 1009.24 1009.68 1009.81 1010.11 1010.15 1010.24 1010.67 1011.15 1011.97 1013.01 1013.97 1014.18 1014.31 1014.33 1014.28 1014.16 1013.35 1013.07 1012.96 1012.89 1012.99 1013.04 1013.07 1013.34 1013.55 1013.83 1013.85 1014.12 1014.39 1014.77 1014.97 1015.16 1015.34 1015.51 1015.56 1015.41 1015.37 1015.41 1015.42 1015.77
1008.23 1008.70 1008.65 1009.05 1009.76 1009.75 1009.79 1009.74 1009.94 1010.20 1010.40 1010.80 1011.42 1011.97 1013.17 1013.80 1013.38 1013.28 1013.17 1012.80 1012.48 1012.36 1012.64 1012.52 1012.28 1012.33 1012.86 1013.53 1013.77 1013.96 1014.25 1014.47 1014.71 1014.80 1014.89 1015.01 1015.15 1014.98 1015.01 1015.16 1015.26 1015.50 1015.53
1007.49 1008.55 1008.60 1008.66 1009.07 1009.09 1009.20 1009.26 1009.39 1009.49 1009.61 1009.97 1010.29 1011.14 1011.95 1012.01 1011.46 1011.57 1011.85 1011.82 1011.41 1011.27 1011.64 1011.65 1012.01 1012.18 1012.42 1012.67 1012.74 1013.04 1013.43 1013.64 1014.03 1014.22 1014.44 1014.75 1014.83 1014.66 1014.86 1014.79 1014.67 1014.83 1014.76
1006.83 1007.77 1008.22 1008.20 1008.40 1008.80 1008.76 1008.91 1009.08 1009.23 1009.35 1009.69 1010.05 1011.65 1012.39 1011.70 1010.88 1010.90 1010.97 1011.02 1011.15 1011.51 1011.49 1011.78 1011.61 1011.61 1011.76 1012.08 1012.40 1012.45 1012.54 1012.68 1013.05 1013.46 1013.74 1014.01 1014.23 1014.17 1014.28 1014.28 1014.26 1014.27 1014.30
1006.43 1007.17 1007.68 1007.90 1008.09 1008.57 1009.02 1008.66 1008.66 1008.94 1009.04 1009.22 1009.44 1010.39 1011.09 1010.49 1010.22 1010.33 1010.53 1010.64 1010.91 1011.18 1011.35 1011.47 1011.46 1011.32 1011.40 1011.75 1012.01 1012.20 1012.18 1012.25 1012.55 1012.90 1013.11 1013.29 1013.46 1013.54 1013.56 1013.54 1013.57 1013.63 1013.72
1006.32 1006.77 1007.25 1007.57 1007.91 1008.31 1008.17 1008.30 1008.43 1008.85 1008.63 1008.78 1009.01 1009.21 1009.40 1009.57 1009.63 1009.93 1010.17 1010.35 1010.64 1010.81 1010.98 1011.08 1011.11 1011.13 1011.22 1011.53 1011.60 1011.92 1012.01 1012.13 1012.35 1012.65 1012.82 1012.85 1012.92 1013.19 1013.09 1013.03 1012.92 1012.96 1013.05
1006.08 1006.31 1006.56 1006.90 1007.41 1007.90 1007.69 1007.82 1008.14 1008.25 1008.58 1008.59 1008.52 1008.57 1008.60 1008.83 1009.05 1009.32 1009.62 1009.90 1010.07 1010.21 1010.33 1010.53 1010.58 1010.63 1011.01 1011.26 1011.21 1011.35 1011.68 1012.35 1012.45 1012.39 1012.64 1012.59 1012.66 1012.68 1012.65 1012.65 1012.51 1012.45 1012.64
1005.48 1005.98 1006.33 1006.62 1006.97 1007.25 1007.29 1007.63 1007.78 1007.96 1008.02 1008.09 1008.14 1008.32 1008.50 1008.50 1008.56 1008.73 1009.05 1009.33 1009.47 1009.56 1009.74 1009.71 1009.84 1010.28 1010.38 1010.60 1010.93 1011.24 1012.12 1012.30 1012.53 1012.92 1012.48 1012.18 1012.30 1012.27 1012.17 1012.17 1012.15 1012.02 1012.06
Thickness
5779 5775 5773 5771 5767 5763 5763 5762 5762 5763 5764 5762 5762 5762 5762 5765 5766 5764 5764 5766 5763 5763 5764 5766 5762 5764 5769 5774 5773 5772 5771 5775 5767 5781 5788 5787 5780 5781 5783 5780 5778 5777 5770
5784 5774 5776 5774 5770 5769 5766 5765 5764 5763 5765 5763 5763 5764 5761 5764 5764 5762 5761 5764 5762 5761 5762 5763 5761 5765 5760 5764 5766 5766 5764 5766 5762 5760 5773 5778 5778 5780 5778 5777 5777 5779 5777
5784 5782 5778 5775 5769 5772 5773 5769 5767 5765 5765 5765 5764 5762 5763 5763 5761 5762 5761 5762 5763 5762 5764 5761 5762 5763 5761 5763 5764 5767 5772 5766 5766 5764 5766 5773 5774 5777 5778 5775 5773 5773 5770
5784 5782 5782 5778 5777 5776 5775 5773 5770 5766 5765 5764 5764 5765 5763 5762 5763 5761 5762 5760 5760 5763 5764 5765 5763 5765 5763 5763 5760 5761 5761 5762 5764 5762 5768 5772 5773 5773 5770 5769 5768 5766 5763
5780 5779 5780 5780 5778 5776 5775 5772 5770 5768 5767 5765 5764 5764 5763 5763 5762 5761 5758 5756 5758 5758 5761 5763 5764 5766 5765 5763 5760 5760 5760 5758 5763 5761 5760 5769 5771 5773 5766 5763 5759 5761 5756
5780 5779 5779 5778 5776 5774 5772 5769 5768 5766 5764 5762 5761 5761 5761 5763 5763 5759 5759 5758 5755 5753 5754 5758 5761 5761 5758 5757 5756 5756 5758 5755 5755 5757 5763 5765 5764 5762 5764 5757 5758 5753 5745
5778 5778 5778 5777 5773 5772 5771 5768 5765 5762 5761 5760 5760 5758 5756 5756 5754 5750 5747 5751 5752 5754 5752 5754 5757 5761 5760 5760 5754 5752 5751 5752 5753 5754 5752 5755 5755 5756 5755 5752 5749 5747 5743
5774 5773 5772 5772 5770 5770 5766 5764 5761 5761 5759 5756 5754 5754 5752 5750 5745 5742 5739 5739 5743 5748 5751 5751 5751 5753 5755 5756 5755 5753 5755 5757 5752 5750 5752 5752 5752 5753 5752 5749 5745 5740 5737
5767 5767 5768 5767 5766 5764 5761 5761 5760 5757 5754 5752 5751 5749 5747 5744 5739 5736 5732 5736 5737 5740 5744 5745 5747 5749 5751 5746 5746 5746 5749 5752 5749 5747 5745 5745 5742 5741 5740 5738 5736 5729 5728
5761 5760 5762 5763 5763 5761 5759 5757 5755 5753 5750 5747 5744 5743 5742 5739 5734 5729 5725 5727 5733 5736 5738 5739 5737 5740 5741 5738 5738 5741 5741 5747 5744 5743 5737 5733 5731 5731 5728 5726 5728 5721 5718
5762 5761 5757 5754 5753 5754 5755 5755 5753 5751 5749 5744 5739 5737 5736 5731 5729 5722 5720 5721 5721 5723 5733 5733 5733 5728 5726 5726 5727 5733 5740 5741 5740 5737 5735 5732 5725 5723 5721 5717 5714 5713 5712
5757 5754 5748 5749 5751 5748 5749 5750 5750 5745 5741 5736 5736 5735 5733 5727 5717 5717 5714 5711 5712 5711 5712 5715 5715 5713 5712 5714 5716 5719 5721 5722 5729 5727 5725 5719 5713 5708 5705 5703 5700 5698 5695
5751 5748 5747 5746 5745 5745 5743 5743 5741 5737 5735 5733 5731 5728 5723 5721 5718 5710 5707 5706 5706 5705 5702 5701 5700 5702 5702 5704 5703 5707 5710 5712 5714 5709 5704 5702 5698 5693 5687 5684 5683 5682 5678
5742 5741 5740 5738 5738 5739 5740 5739 5737 5733 5729 5726 5721 5719 5717 5716 5712 5709 5705 5700 5695 5695 5692 5691 5689 5689 5688 5688 5689 5691 5696 5697 5695 5691 5687 5686 5686 5679 5675 5672 5667 5666 5665
5736 5735 5734 5733 5731 5726 5723 5722 5723 5717 5714 5718 5716 5716 5709 5704 5698 5691 5690 5690 5688 5681 5680 5680 5679 5679 5674 5672 5673 5675 5678 5677 5673 5670 5666 5668 5667 5664 5660 5659 5664 5660 5653
5728 5728 5730 5728 5724 5720 5719 5711 5699 5698 5696 5696 5695 5697 5698 5688 5682 5679 5676 5673 5670 5668 5668 5665 5663 5662 5662 5661 5660 5659 5657 5658 5656 5660 5652 5647 5650 5647 5643 5648 5650 5649 5647
5725 5724 5722 5720 5719 5715 5716 5714 5706 5689 5685 5684 5683 5684 5683 5678 5674 5671 5668 5667 5664 5663 5662 5659 5656 5654 5654 5654 5652 5651 5648 5649 5645 5644 5643 5638 5637 5637 5633 5634 5634 5636 5639
5720 5714 5717 5716 5712 5709 5709 5710 5711 5701 5693 5691 5678 5678 5672 5670 5667 5664 5662 5661 5665 5661 5667 5662 5662 5664 5659 5656 5654 5651 5644 5644 5640 5638 5635 5633 5631 5630 5630 5631 5631 5633 5636
5716 5712 5716 5712 5709 5708 5706 5706 5705 5700 5696 5691 5682 5672 5668 5664 5662 5660 5657 5664 5663 5663 5664 5661 5659 5658 5655 5651 5647 5647 5644 5641 5638 5636 5634 5633 5632 5631 5632 5633 5633 5631 5628
5715 5708 5710 5707 5700 5701 5700 5700 5698 5696 5696 5694 5690 5686 5674 5666 5668 5665 5662 5662 5663 5664 5660 5660 5662 5661 5655 5648 5644 5641 5638 5636 5633 5632 5631 5630 5629 5631 5630 5629 5629 5625 5625
5714 5704 5705 5705 5700 5700 5699 5698 5698 5698 5698 5696 5695 5687 5679 5679 5681 5675 5669 5667 5669 5669 5666 5664 5661 5658 5655 5652 5650 5646 5641 5639 5636 5634 5633 5630 5630 5630 5629 5629 5630 5629 5630
5712 5704 5702 5702 5701 5697 5698 5699 5698 5697 5697 5694 5693 5679 5667 5676 5681 5678 5674 5672 5670 5666 5666 5662 5662 5661 5659 5654 5650 5649 5646 5645 5642 5638 5635 5632 5630 5630 5629 5628 5627 5626 5626
5707 5702 5699 5698 5698 5692 5692 5697 5698 5696 5696 5696 5695 5687 5680 5683 5683 5679 5676 5675 5671 5667 5665 5662 5661 5662 5660 5655 5651 5649 5647 5645 5642 5639 5636 5634 5632 5630 5630 5628 5627 5625 5624
5700 5699 5695 5695 5694 5692 5696 5695 5696 5689 5695 5694 5693 5692 5689 5686 5684 5680 5677 5674 5671 5667 5664 5662 5661 5660 5658 5653 5652 5648 5645 5643 5639 5635 5632 5631 5630 5626 5627 5626 5625 5624 5622
5696 5697 5697 5697 5694 5691 5695 5694 5692 5692 5689 5689 5690 5690 5690 5688 5684 5681 5678 5674 5671 5668 5666 5662 5660 5659 5654 5650 5649 5646 5644 5637 5633 5632 5628 5627 5626 5625 5624 5622 5621 5620 5617
5698 5696 5695 5696 5694 5693 5694 5690 5689 5688 5687 5687 5687 5685 5683 5682 5682 5680 5676 5672 5670 5668 5665 5663 5660 5654 5652 5648 5644 5641 5636 5632 5628 5625 5624 5625 5623 5622 5622 5619 5618 5617 5616